#�ϑ�����,���ϕ���,���ϕ���,�ő啗��,�ő啗����������,�ő�u�ԕ���,�ő�u�ԕ�����������
#(�N����),(m/s)   ,(16����),(m/s)   ,(16����)        ,(m/s)       ,(16����)            
2016/7/26 0:01,0.9,1,1,16,1.3,1
2016/7/26 0:02,0.9,1,0.9,16,1.9,2
2016/7/26 0:03,0.9,1,0.9,16,2.1,2
2016/7/26 0:04,1,1,1,16,1.9,1
2016/7/26 0:05,1,2,1,16,1.4,3
2016/7/26 0:06,0.9,2,1,1,1.4,1
2016/7/26 0:07,0.8,2,0.9,1,1.1,3
2016/7/26 0:08,0.8,2,0.8,1,1.4,2
2016/7/26 0:09,0.7,2,0.8,1,1.1,1
2016/7/26 0:10,0.7,2,0.7,1,1,2
2016/7/26 0:11,0.7,1,0.7,1,1,1
2016/7/26 0:12,0.6,1,0.7,1,0.1,16
2016/7/26 0:13,0.5,1,0.6,1,0.1,2
2016/7/26 0:14,0.4,1,0.5,2,0.6,16
2016/7/26 0:15,0.4,1,0.5,2,1.5,1
2016/7/26 0:16,0.5,1,0.5,2,1.1,1
2016/7/26 0:17,0.5,1,0.5,2,1.5,3
2016/7/26 0:18,0.6,1,0.6,2,1.4,1
2016/7/26 0:19,0.6,1,0.6,2,1.4,1
2016/7/26 0:20,0.6,1,0.6,2,1,16
2016/7/26 0:21,0.6,1,0.6,1,1.5,16
2016/7/26 0:22,0.8,1,0.8,1,1.6,1
2016/7/26 0:23,0.8,1,0.8,1,1,16
2016/7/26 0:24,0.9,1,0.9,1,0.8,2
2016/7/26 0:25,0.8,1,0.9,1,1.1,16
2016/7/26 0:26,0.8,1,0.8,1,0.8,1
2016/7/26 0:27,0.7,1,0.8,1,0.9,16
2016/7/26 0:28,0.7,1,0.7,1,1,1
2016/7/26 0:29,0.6,1,0.7,1,0.9,2
2016/7/26 0:30,0.6,1,0.6,1,1.1,1
2016/7/26 0:31,0.6,1,0.6,1,1.1,16
2016/7/26 0:32,0.5,1,0.6,1,0.9,1
2016/7/26 0:33,0.4,1,0.5,1,0.5,16
2016/7/26 0:34,0.5,1,0.5,1,1.1,1
2016/7/26 0:35,0.4,1,0.5,1,0.6,2
2016/7/26 0:36,0.5,1,0.5,1,1.3,3
2016/7/26 0:37,0.5,1,0.5,1,1,3
2016/7/26 0:38,0.5,2,0.5,1,1,2
2016/7/26 0:39,0.5,2,0.5,1,0.9,3
2016/7/26 0:40,0.5,2,0.6,1,1,3
2016/7/26 0:41,0.5,2,0.5,1,1,3
2016/7/26 0:42,0.5,2,0.5,2,0.9,2
2016/7/26 0:43,0.6,2,0.6,2,1.1,3
2016/7/26 0:44,0.5,2,0.6,2,0.9,3
2016/7/26 0:45,0.5,2,0.5,2,1,2
2016/7/26 0:46,0.6,2,0.6,2,1.3,3
2016/7/26 0:47,0.6,2,0.6,2,1.4,3
2016/7/26 0:48,0.6,2,0.6,2,1,2
2016/7/26 0:49,0.6,2,0.6,2,1.1,3
2016/7/26 0:50,0.6,2,0.6,2,1.1,4
2016/7/26 0:51,0.7,2,0.7,2,1.5,3
2016/7/26 0:52,0.7,2,0.7,2,1.4,2
2016/7/26 0:53,0.6,2,0.7,2,0.8,2
2016/7/26 0:54,0.7,2,0.7,2,1.4,3
2016/7/26 0:55,0.7,2,0.7,2,0.8,3
2016/7/26 0:56,0.7,2,0.7,2,1.3,1
2016/7/26 0:57,0.7,2,0.7,2,1.5,2
2016/7/26 0:58,0.7,2,0.7,2,1.5,3
2016/7/26 0:59,0.7,2,0.7,2,1.4,2
2016/7/26 1:00,0.8,2,0.8,2,1.6,3
2016/7/26 1:01,0.7,2,0.8,2,1.3,3
2016/7/26 1:02,0.8,2,0.8,2,1.4,3
2016/7/26 1:03,0.8,2,0.8,2,1.5,2
2016/7/26 1:04,0.8,2,0.8,2,0.8,2
2016/7/26 1:05,0.7,2,0.7,2,0.1,3
2016/7/26 1:06,0.7,3,0.7,2,0.9,4
2016/7/26 1:07,0.6,3,0.7,2,0.8,4
2016/7/26 1:08,0.6,3,0.6,2,0.8,3
2016/7/26 1:09,0.5,3,0.6,2,1.6,3
2016/7/26 1:10,0.5,3,0.5,2,1.4,4
2016/7/26 1:11,0.5,3,0.5,2,1,3
2016/7/26 1:12,0.4,3,0.5,2,0.8,3
2016/7/26 1:13,0.3,3,0.4,2,0.1,2
2016/7/26 1:14,0.4,3,0.4,2,0.8,4
2016/7/26 1:15,0.4,3,0.4,2,0.6,4
2016/7/26 1:16,0.4,3,0.4,3,0.1,4
2016/7/26 1:17,0.3,3,0.3,3,0.8,4
2016/7/26 1:18,0.3,3,0.3,3,0.8,4
2016/7/26 1:19,0.3,3,0.3,3,0.6,3
2016/7/26 1:20,0.3,3,0.3,3,1.3,2
2016/7/26 1:21,0.3,3,0.3,3,1.1,4
2016/7/26 1:22,0.3,3,0.3,3,0.5,4
2016/7/26 1:23,0.3,4,0.3,3,0.5,3
2016/7/26 1:24,0.3,3,0.3,3,0.9,4
2016/7/26 1:25,0.3,3,0.3,3,1.1,3
2016/7/26 1:26,0.4,3,0.4,3,0.6,3
2016/7/26 1:27,0.4,3,0.4,3,1,5
2016/7/26 1:28,0.4,3,0.4,3,1,5
2016/7/26 1:29,0.4,3,0.4,3,1.3,2
2016/7/26 1:30,0.4,3,0.4,3,1,4
2016/7/26 1:31,0.5,3,0.5,3,1.4,4
2016/7/26 1:32,0.6,3,0.6,3,1.4,4
2016/7/26 1:33,0.6,3,0.6,3,1.3,3
2016/7/26 1:34,0.6,3,0.6,3,0.6,4
2016/7/26 1:35,0.5,3,0.6,3,0.4,2
2016/7/26 1:36,0.5,2,0.5,3,0,2
2016/7/26 1:37,0.5,2,0.5,3,0.3,2
2016/7/26 1:38,0.4,2,0.4,3,0.4,2
2016/7/26 1:39,0.4,2,0.4,3,0.9,2
2016/7/26 1:40,0.4,2,0.4,3,1.1,2
2016/7/26 1:41,0.4,2,0.4,3,0.8,1
2016/7/26 1:42,0.3,2,0.4,3,1,3
2016/7/26 1:43,0.2,2,0.3,3,1,3
2016/7/26 1:44,0.3,2,0.3,3,1,16
2016/7/26 1:45,0.3,2,0.3,3,1,16
2016/7/26 1:46,0.3,2,0.3,2,0.8,1
2016/7/26 1:47,0.4,2,0.4,2,0.9,1
2016/7/26 1:48,0.4,2,0.4,2,1.1,16
2016/7/26 1:49,0.4,1,0.5,1,1.1,15
2016/7/26 1:50,0.4,1,0.4,1,0.8,16
2016/7/26 1:51,0.4,1,0.4,1,1.3,1
2016/7/26 1:52,0.5,1,0.5,1,1.3,16
2016/7/26 1:53,0.5,1,0.5,1,1.1,1
2016/7/26 1:54,0.6,1,0.6,1,1.1,2
2016/7/26 1:55,0.6,1,0.6,1,1.5,2
2016/7/26 1:56,0.6,1,0.6,1,1.1,2
2016/7/26 1:57,0.6,1,0.6,1,0.9,1
2016/7/26 1:58,0.6,1,0.7,1,0.9,2
2016/7/26 1:59,0.6,1,0.6,1,0.3,16
2016/7/26 2:00,0.6,1,0.6,1,0.6,1
2016/7/26 2:01,0.6,1,0.6,1,1,2
2016/7/26 2:02,0.5,2,0.6,1,0.3,14
2016/7/26 2:03,0.5,1,0.5,1,1.1,15
2016/7/26 2:04,0.5,1,0.5,1,1.6,16
2016/7/26 2:05,0.5,1,0.5,1,1.9,1
2016/7/26 2:06,0.6,1,0.6,1,1.8,16
2016/7/26 2:07,0.6,1,0.6,1,1.4,2
2016/7/26 2:08,0.7,1,0.7,1,1.5,1
2016/7/26 2:09,0.8,1,0.8,1,1.8,1
2016/7/26 2:10,0.8,1,0.8,1,1.3,1
2016/7/26 2:11,0.9,1,0.9,1,1.5,16
2016/7/26 2:12,1,1,1,1,1.6,16
2016/7/26 2:13,1,1,1,1,1.4,1
2016/7/26 2:14,1,1,1,1,1.3,16
2016/7/26 2:15,1,1,1,1,1.9,1
2016/7/26 2:16,1,1,1,1,1.5,16
2016/7/26 2:17,1,1,1,1,1.3,16
2016/7/26 2:18,1,16,1,1,1.5,16
2016/7/26 2:19,1,16,1,1,1.5,16
2016/7/26 2:20,1,16,1,1,1.6,16
2016/7/26 2:21,1,16,1,1,1.6,1
2016/7/26 2:22,1.1,16,1.1,16,1.5,16
2016/7/26 2:23,1.1,16,1.1,16,1.6,1
2016/7/26 2:24,1.1,1,1.1,16,1.6,1
2016/7/26 2:25,1,1,1.1,16,1.1,1
2016/7/26 2:26,1,1,1,16,0.6,1
2016/7/26 2:27,0.9,1,1,16,1,16
2016/7/26 2:28,1,1,1,16,1.6,16
2016/7/26 2:29,1,1,1,16,1.4,16
2016/7/26 2:30,0.9,1,1,16,1.5,16
2016/7/26 2:31,0.9,1,0.9,16,1.4,16
2016/7/26 2:32,0.9,16,0.9,16,1.9,16
2016/7/26 2:33,0.9,16,0.9,16,1.5,16
2016/7/26 2:34,1,16,1,1,2,16
2016/7/26 2:35,1,16,1,1,1.9,15
2016/7/26 2:36,1.1,16,1.1,16,1.8,16
2016/7/26 2:37,1.2,16,1.2,16,1.5,16
2016/7/26 2:38,1.2,16,1.2,16,1.6,16
2016/7/26 2:39,1.2,16,1.2,16,2.1,16
2016/7/26 2:40,1.2,16,1.2,16,2.1,1
2016/7/26 2:41,1.2,16,1.2,16,2,16
2016/7/26 2:42,1.3,16,1.3,16,2.2,15
2016/7/26 2:43,1.3,16,1.3,16,1.8,15
2016/7/26 2:44,1.3,16,1.3,16,2,16
2016/7/26 2:45,1.3,16,1.3,16,1.9,16
2016/7/26 2:46,1.2,16,1.2,16,1.1,16
2016/7/26 2:47,1.1,16,1.2,16,0.6,4
2016/7/26 2:48,1.1,16,1.1,16,1.9,3
2016/7/26 2:49,1.1,1,1.1,16,1.6,3
2016/7/26 2:50,1.1,1,1.1,16,1.9,3
2016/7/26 2:51,1.1,2,1.1,16,1.5,3
2016/7/26 2:52,1,2,1.1,16,0.8,4
2016/7/26 2:53,0.9,2,0.9,16,2,15
2016/7/26 2:54,1,2,1,16,2.6,15
2016/7/26 2:55,1,2,1,16,2.6,15
2016/7/26 2:56,1.2,2,1.2,16,2.6,16
2016/7/26 2:57,1.4,1,1.4,1,2.5,16
2016/7/26 2:58,1.4,1,1.4,1,1.9,15
2016/7/26 2:59,1.3,1,1.3,1,1.1,1
2016/7/26 3:00,1.2,16,1.3,1,0.8,15
2016/7/26 3:01,1.1,16,1.2,1,0.8,16
2016/7/26 3:02,1.1,16,1.1,1,0.5,1
2016/7/26 3:03,1,16,1.1,1,0.3,16
2016/7/26 3:04,0.9,16,1,1,0.5,1
2016/7/26 3:05,0.7,16,0.9,1,0.4,15
2016/7/26 3:06,0.5,16,0.7,1,0.6,15
2016/7/26 3:07,0.3,16,0.5,1,0.4,15
2016/7/26 3:08,0.3,16,0.3,1,0.1,15
2016/7/26 3:09,0.2,16,0.2,1,0.1,15
2016/7/26 3:10,0.1,16,0.2,16,0,15
2016/7/26 3:11,0.1,15,0.1,16,0,15
2016/7/26 3:12,0.1,15,0.1,16,0.5,9
2016/7/26 3:13,0.1,15,0.1,16,0.5,9
2016/7/26 3:14,0.1,14,0.1,16,0.8,9
2016/7/26 3:15,0.1,13,0.1,16,0.4,9
2016/7/26 3:16,0.1,12,0.1,16,0.1,11
2016/7/26 3:17,0.1,12,0.1,16,1,12
2016/7/26 3:18,0.2,12,0.2,16,1,12
2016/7/26 3:19,0.2,11,0.2,16,0.6,12
2016/7/26 3:20,0.2,11,0.2,12,0.3,12
2016/7/26 3:21,0.2,11,0.2,12,0,12
2016/7/26 3:22,0.2,11,0.2,12,0,12
2016/7/26 3:23,0.2,12,0.2,12,0.1,12
2016/7/26 3:24,0.2,12,0.2,12,0.5,6
2016/7/26 3:25,0.2,12,0.2,12,0.5,6
2016/7/26 3:26,0.3,12,0.3,12,0.6,6
2016/7/26 3:27,0.3,11,0.3,12,0.6,6
2016/7/26 3:28,0.2,10,0.3,12,0.6,6
2016/7/26 3:29,0.2,9,0.2,12,0.4,6
2016/7/26 3:30,0.2,7,0.2,12,0.1,5
2016/7/26 3:31,0.2,6,0.2,12,0,6
2016/7/26 3:32,0.2,6,0.2,12,0,5
2016/7/26 3:33,0.2,6,0.2,12,0.1,4
2016/7/26 3:34,0.2,5,0.2,12,0.1,1
2016/7/26 3:35,0.1,5,0.2,12,0.1,16
2016/7/26 3:36,0.1,4,0.1,12,0.9,16
2016/7/26 3:37,0.1,4,0.1,11,0.8,16
2016/7/26 3:38,0.1,3,0.1,10,0.5,16
2016/7/26 3:39,0.1,2,0.1,8,0.4,16
2016/7/26 3:40,0.1,2,0.1,7,0.1,16
2016/7/26 3:41,0.1,1,0.1,6,0,16
2016/7/26 3:42,0.1,1,0.1,6,0,16
2016/7/26 3:43,0.1,1,0.1,5,0.5,16
2016/7/26 3:44,0.1,16,0.1,5,0.1,16
2016/7/26 3:45,0.1,16,0.1,5,0,16
2016/7/26 3:46,0.1,16,0.1,4,0.1,16
2016/7/26 3:47,0.1,16,0.1,4,0,16
2016/7/26 3:48,0,16,0.1,3,0,16
2016/7/26 3:49,0,16,0,2,0.5,16
2016/7/26 3:50,0.1,16,0.1,2,0.9,16
2016/7/26 3:51,0.1,16,0.1,1,0.9,16
2016/7/26 3:52,0.2,16,0.2,16,1,1
2016/7/26 3:53,0.2,16,0.2,16,1,1
2016/7/26 3:54,0.3,16,0.3,16,0.8,16
2016/7/26 3:55,0.3,16,0.3,16,0.6,1
2016/7/26 3:56,0.3,16,0.3,16,0.8,16
2016/7/26 3:57,0.4,16,0.4,16,0.8,16
2016/7/26 3:58,0.4,1,0.4,16,0.1,16
2016/7/26 3:59,0.4,1,0.4,16,0.4,16
2016/7/26 4:00,0.3,1,0.4,16,0.5,16
2016/7/26 4:01,0.3,1,0.3,16,0.5,16
2016/7/26 4:02,0.3,1,0.3,16,0.6,16
2016/7/26 4:03,0.3,1,0.3,16,1,16
2016/7/26 4:04,0.3,16,0.3,16,0.5,16
2016/7/26 4:05,0.2,16,0.3,16,0,16
2016/7/26 4:06,0.2,16,0.2,16,0.5,16
2016/7/26 4:07,0.2,16,0.2,16,0.5,16
2016/7/26 4:08,0.2,16,0.2,1,0,16
2016/7/26 4:09,0.2,16,0.2,1,0,16
2016/7/26 4:10,0.1,16,0.2,1,0,16
2016/7/26 4:11,0.1,16,0.1,1,0.1,16
2016/7/26 4:12,0.1,16,0.1,1,0.3,16
2016/7/26 4:13,0,16,0.1,1,0.3,16
2016/7/26 4:14,0.1,16,0.1,16,0.6,3
2016/7/26 4:15,0.1,16,0.1,16,0.5,6
2016/7/26 4:16,0.1,1,0.1,16,0.1,5
2016/7/26 4:17,0.1,1,0.1,16,0,6
2016/7/26 4:18,0.1,2,0.1,16,0,8
2016/7/26 4:19,0.1,4,0.1,16,0,8
2016/7/26 4:20,0.1,6,0.1,16,0,8
2016/7/26 4:21,0.1,7,0.1,16,1,9
2016/7/26 4:22,0.1,7,0.1,16,0.8,8
2016/7/26 4:23,0.2,8,0.2,8,1.5,9
2016/7/26 4:24,0.2,8,0.2,8,1.1,8
2016/7/26 4:25,0.3,8,0.3,8,1.1,6
2016/7/26 4:26,0.3,8,0.3,8,0.9,6
2016/7/26 4:27,0.3,8,0.3,8,0.4,10
2016/7/26 4:28,0.4,8,0.4,8,1,9
2016/7/26 4:29,0.4,8,0.4,8,1,10
2016/7/26 4:30,0.4,8,0.4,8,0.3,9
2016/7/26 4:31,0.4,8,0.4,8,0,1
2016/7/26 4:32,0.4,7,0.4,8,0.1,8
2016/7/26 4:33,0.3,7,0.4,8,0,8
2016/7/26 4:34,0.2,7,0.3,8,0,8
2016/7/26 4:35,0.1,7,0.2,8,0,7
2016/7/26 4:36,0.1,7,0.1,8,0,5
2016/7/26 4:37,0.1,6,0.1,8,0.3,16
2016/7/26 4:38,0,5,0.1,8,0.1,16
2016/7/26 4:39,0,3,0,8,0,16
2016/7/26 4:40,0,3,0,8,0,16
2016/7/26 4:41,0,3,0,8,0.1,1
2016/7/26 4:42,0,3,0,7,0,6
2016/7/26 4:43,0,3,0,7,0.4,9
2016/7/26 4:44,0,2,0,7,0.3,9
2016/7/26 4:45,0,2,0,7,0,9
2016/7/26 4:46,0,16,0,7,0,9
2016/7/26 4:47,0,5,0,6,0,9
2016/7/26 4:48,0,7,0,5,0,6
2016/7/26 4:49,0,7,0,3,0.4,6
2016/7/26 4:50,0,7,0,3,0.6,6
2016/7/26 4:51,0.1,7,0.1,7,0.5,6
2016/7/26 4:52,0.1,7,0.1,7,0.5,6
2016/7/26 4:53,0.1,7,0.1,7,0.4,6
2016/7/26 4:54,0.1,7,0.1,7,0.1,6
2016/7/26 4:55,0.2,6,0.2,6,0.5,6
2016/7/26 4:56,0.2,6,0.2,6,0.5,6
2016/7/26 4:57,0.2,6,0.2,6,0.6,6
2016/7/26 4:58,0.2,6,0.2,6,0.6,6
2016/7/26 4:59,0.2,6,0.2,6,0.5,8
2016/7/26 5:00,0.2,6,0.2,6,0.4,6
2016/7/26 5:01,0.2,6,0.2,6,0.5,5
2016/7/26 5:02,0.2,6,0.2,6,0.5,5
2016/7/26 5:03,0.2,6,0.2,6,0.5,4
2016/7/26 5:04,0.2,6,0.2,6,0.9,3
2016/7/26 5:05,0.3,5,0.3,6,0.6,3
2016/7/26 5:06,0.3,5,0.3,6,0.6,3
2016/7/26 5:07,0.3,5,0.3,6,0.6,3
2016/7/26 5:08,0.3,5,0.3,6,0.5,4
2016/7/26 5:09,0.3,4,0.3,6,0.1,4
2016/7/26 5:10,0.2,4,0.3,6,0,4
2016/7/26 5:11,0.2,4,0.2,6,0,3
2016/7/26 5:12,0.2,4,0.2,6,0.1,3
2016/7/26 5:13,0.2,4,0.2,6,0.5,3
2016/7/26 5:14,0.2,4,0.2,6,0.6,4
2016/7/26 5:15,0.2,4,0.2,5,0.5,3
2016/7/26 5:16,0.2,4,0.2,5,1.1,5
2016/7/26 5:17,0.3,4,0.3,5,1,6
2016/7/26 5:18,0.3,4,0.3,5,1.1,7
2016/7/26 5:19,0.4,4,0.4,4,1.1,7
2016/7/26 5:20,0.4,5,0.4,4,1,8
2016/7/26 5:21,0.5,5,0.5,5,1.1,8
2016/7/26 5:22,0.5,6,0.5,5,0.9,8
2016/7/26 5:23,0.5,6,0.5,5,0.6,8
2016/7/26 5:24,0.5,7,0.5,5,0.4,8
2016/7/26 5:25,0.5,7,0.5,5,0.4,10
2016/7/26 5:26,0.4,8,0.5,5,0.5,10
2016/7/26 5:27,0.4,8,0.4,5,0.5,9
2016/7/26 5:28,0.3,8,0.4,5,0.1,9
2016/7/26 5:29,0.3,8,0.3,5,0.6,8
2016/7/26 5:30,0.2,8,0.3,5,0.4,7
2016/7/26 5:31,0.2,8,0.2,6,0.1,4
2016/7/26 5:32,0.1,8,0.1,6,0,4
2016/7/26 5:33,0.1,8,0.1,7,0,10
2016/7/26 5:34,0.1,8,0.1,7,0.5,5
2016/7/26 5:35,0.1,8,0.1,7,0.4,5
2016/7/26 5:36,0.1,7,0.1,8,0.1,4
2016/7/26 5:37,0.1,6,0.1,8,0.3,4
2016/7/26 5:38,0.1,6,0.1,8,0.8,3
2016/7/26 5:39,0.1,5,0.1,8,0.6,2
2016/7/26 5:40,0.1,5,0.1,8,0.4,3
2016/7/26 5:41,0.2,5,0.2,5,0.8,5
2016/7/26 5:42,0.2,4,0.2,5,0.6,5
2016/7/26 5:43,0.2,4,0.2,5,0.6,5
2016/7/26 5:44,0.2,4,0.2,5,0.5,4
2016/7/26 5:45,0.3,4,0.3,4,0.8,3
2016/7/26 5:46,0.3,4,0.3,4,0.9,3
2016/7/26 5:47,0.4,4,0.4,4,0.6,2
2016/7/26 5:48,0.4,3,0.4,4,0.8,3
2016/7/26 5:49,0.4,4,0.4,4,0.6,4
2016/7/26 5:50,0.4,4,0.4,4,0.4,6
2016/7/26 5:51,0.4,4,0.4,4,0.8,5
2016/7/26 5:52,0.4,4,0.4,4,0.6,6
2016/7/26 5:53,0.4,4,0.4,4,0.8,6
2016/7/26 5:54,0.4,4,0.4,4,0.4,8
2016/7/26 5:55,0.3,4,0.4,4,0.3,8
2016/7/26 5:56,0.3,4,0.3,4,0.1,16
2016/7/26 5:57,0.2,5,0.2,3,0.8,6
2016/7/26 5:58,0.3,5,0.3,3,0.6,5
2016/7/26 5:59,0.3,5,0.3,4,0.8,5
2016/7/26 6:00,0.3,5,0.3,4,0.8,3
2016/7/26 6:01,0.3,5,0.3,4,0.8,3
2016/7/26 6:02,0.3,4,0.3,4,0.6,3
2016/7/26 6:03,0.3,4,0.3,4,0.9,3
2016/7/26 6:04,0.4,4,0.4,4,0.9,3
2016/7/26 6:05,0.4,4,0.4,4,0.8,4
2016/7/26 6:06,0.4,4,0.4,4,0.5,3
2016/7/26 6:07,0.4,3,0.4,4,0,2
2016/7/26 6:08,0.4,3,0.4,4,0,1
2016/7/26 6:09,0.3,3,0.4,4,0,1
2016/7/26 6:10,0.3,2,0.3,4,0.3,1
2016/7/26 6:11,0.3,2,0.3,4,0.1,1
2016/7/26 6:12,0.2,2,0.3,4,0,1
2016/7/26 6:13,0.1,2,0.2,4,0.1,1
2016/7/26 6:14,0.1,1,0.1,4,0.1,1
2016/7/26 6:15,0,1,0.1,4,0,1
2016/7/26 6:16,0,1,0,4,0,1
2016/7/26 6:17,0,1,0,3,0.1,1
2016/7/26 6:18,0,1,0,3,0.1,1
2016/7/26 6:19,0,1,0,3,0.1,1
2016/7/26 6:20,0,1,0,2,0,1
2016/7/26 6:21,0,1,0,2,0,1
2016/7/26 6:22,0,1,0,2,0.1,15
2016/7/26 6:23,0,1,0,2,0,15
2016/7/26 6:24,0,16,0,1,0,15
2016/7/26 6:25,0,16,0,1,0,15
2016/7/26 6:26,0,16,0,1,0.1,14
2016/7/26 6:27,0,16,0,1,0.5,14
2016/7/26 6:28,0.1,16,0.1,16,0.8,16
2016/7/26 6:29,0.1,15,0.1,16,0.6,15
2016/7/26 6:30,0.1,15,0.1,16,0.8,16
2016/7/26 6:31,0.1,15,0.1,16,0.5,15
2016/7/26 6:32,0.2,15,0.2,15,0.8,15
2016/7/26 6:33,0.2,15,0.2,15,0.9,16
2016/7/26 6:34,0.3,16,0.3,15,1,16
2016/7/26 6:35,0.4,16,0.4,16,1.1,16
2016/7/26 6:36,0.4,16,0.4,16,1,16
2016/7/26 6:37,0.5,16,0.5,16,1.1,1
2016/7/26 6:38,0.5,16,0.5,16,1.3,16
2016/7/26 6:39,0.5,16,0.5,16,0.8,16
2016/7/26 6:40,0.5,16,0.5,16,0.9,16
2016/7/26 6:41,0.5,16,0.5,16,0.1,1
2016/7/26 6:42,0.5,16,0.5,16,0.1,14
2016/7/26 6:43,0.4,16,0.5,16,0,16
2016/7/26 6:44,0.4,16,0.4,16,0.1,1
2016/7/26 6:45,0.3,16,0.4,16,0.4,1
2016/7/26 6:46,0.2,16,0.3,16,0,1
2016/7/26 6:47,0.2,16,0.2,16,0.4,15
2016/7/26 6:48,0.1,16,0.2,16,0.4,2
2016/7/26 6:49,0.1,16,0.1,16,0.5,15
2016/7/26 6:50,0.1,16,0.1,16,0.4,14
2016/7/26 6:51,0.1,1,0.1,16,0.1,15
2016/7/26 6:52,0.1,1,0.1,16,0.4,15
2016/7/26 6:53,0.1,1,0.1,16,0.5,16
2016/7/26 6:54,0.1,1,0.1,16,0.1,2
2016/7/26 6:55,0.1,1,0.1,16,0.1,2
2016/7/26 6:56,0.1,1,0.1,16,0,3
2016/7/26 6:57,0.1,1,0.1,16,0.1,3
2016/7/26 6:58,0.1,2,0.1,16,0.5,3
2016/7/26 6:59,0.1,2,0.1,16,0.4,3
2016/7/26 7:00,0.1,2,0.1,16,0.6,3
2016/7/26 7:01,0.2,2,0.2,2,0.6,5
2016/7/26 7:02,0.2,3,0.2,2,0.9,4
2016/7/26 7:03,0.2,3,0.2,2,0.6,5
2016/7/26 7:04,0.2,3,0.2,2,0.3,4
2016/7/26 7:05,0.2,4,0.2,2,0.5,5
2016/7/26 7:06,0.3,4,0.3,4,0.5,5
2016/7/26 7:07,0.3,4,0.3,4,0.5,6
2016/7/26 7:08,0.3,5,0.3,4,0.5,7
2016/7/26 7:09,0.3,5,0.3,4,0.5,8
2016/7/26 7:10,0.3,5,0.3,4,0.5,8
2016/7/26 7:11,0.3,6,0.3,4,0.8,7
2016/7/26 7:12,0.3,6,0.3,4,1.1,6
2016/7/26 7:13,0.4,6,0.4,6,0.8,6
2016/7/26 7:14,0.4,6,0.4,6,0.6,6
2016/7/26 7:15,0.4,6,0.4,6,0.1,7
2016/7/26 7:16,0.3,7,0.4,6,0,7
2016/7/26 7:17,0.3,7,0.3,6,0.1,7
2016/7/26 7:18,0.3,7,0.3,6,0.8,6
2016/7/26 7:19,0.3,6,0.3,6,0.8,5
2016/7/26 7:20,0.3,7,0.3,6,0.4,8
2016/7/26 7:21,0.3,7,0.3,6,1,8
2016/7/26 7:22,0.2,7,0.3,6,0.8,8
2016/7/26 7:23,0.2,7,0.2,6,0.1,8
2016/7/26 7:24,0.1,7,0.2,6,0,8
2016/7/26 7:25,0.1,7,0.1,6,0,8
2016/7/26 7:26,0.2,7,0.2,7,0.5,4
2016/7/26 7:27,0.3,7,0.3,7,1.3,4
2016/7/26 7:28,0.3,7,0.3,7,1.4,4
2016/7/26 7:29,0.4,7,0.4,7,1.5,3
2016/7/26 7:30,0.5,6,0.5,6,1.3,2
2016/7/26 7:31,0.5,6,0.5,6,1,3
2016/7/26 7:32,0.5,5,0.5,6,0.4,3
2016/7/26 7:33,0.5,5,0.5,6,0.8,4
2016/7/26 7:34,0.5,4,0.5,6,0.6,4
2016/7/26 7:35,0.5,4,0.5,6,0.3,3
2016/7/26 7:36,0.5,4,0.5,6,0.3,8
2016/7/26 7:37,0.5,5,0.5,6,0.8,7
2016/7/26 7:38,0.4,5,0.5,6,0.6,8
2016/7/26 7:39,0.3,6,0.4,6,0.8,8
2016/7/26 7:40,0.3,6,0.3,6,0.1,10
2016/7/26 7:41,0.2,7,0.3,6,0.1,11
2016/7/26 7:42,0.2,8,0.2,5,0,11
2016/7/26 7:43,0.2,9,0.2,5,0,11
2016/7/26 7:44,0.1,9,0.2,4,0,11
2016/7/26 7:45,0.1,9,0.1,4,0.4,8
2016/7/26 7:46,0.2,9,0.2,4,0.5,7
2016/7/26 7:47,0.1,9,0.2,5,0.3,7
2016/7/26 7:48,0.1,9,0.1,5,0.5,6
2016/7/26 7:49,0.1,9,0.1,6,0.4,7
2016/7/26 7:50,0.1,9,0.1,7,0.1,9
2016/7/26 7:51,0.1,9,0.1,7,0,9
2016/7/26 7:52,0.1,9,0.1,8,0,9
2016/7/26 7:53,0.1,8,0.1,9,0.6,6
2016/7/26 7:54,0.1,8,0.1,9,0.5,5
2016/7/26 7:55,0.1,7,0.1,9,0.9,5
2016/7/26 7:56,0.2,7,0.2,9,0.9,5
2016/7/26 7:57,0.2,7,0.2,7,0.8,5
2016/7/26 7:58,0.2,6,0.2,7,0.5,4
2016/7/26 7:59,0.2,6,0.2,7,0.4,5
2016/7/26 8:00,0.2,6,0.2,7,0.3,7
2016/7/26 8:01,0.2,6,0.2,7,0,7
2016/7/26 8:02,0.3,5,0.3,5,0.4,2
2016/7/26 8:03,0.2,5,0.3,5,0.3,5
2016/7/26 8:04,0.2,5,0.2,5,0.3,5
2016/7/26 8:05,0.2,5,0.2,5,0.6,4
2016/7/26 8:06,0.2,5,0.2,5,0.6,4
2016/7/26 8:07,0.1,5,0.2,5,0.5,4
2016/7/26 8:08,0.1,5,0.1,5,0.4,4
2016/7/26 8:09,0.1,5,0.1,5,0.1,4
2016/7/26 8:10,0.1,5,0.1,5,0.1,3
2016/7/26 8:11,0.1,4,0.1,5,0,15
2016/7/26 8:12,0.1,4,0.1,5,0.6,5
2016/7/26 8:13,0.1,4,0.1,5,0.6,4
2016/7/26 8:14,0.1,4,0.1,5,0.6,3
2016/7/26 8:15,0.2,3,0.2,5,0.5,4
2016/7/26 8:16,0.1,3,0.1,5,0.1,5
2016/7/26 8:17,0.1,3,0.1,4,0.1,3
2016/7/26 8:18,0.1,3,0.1,4,0.1,7
2016/7/26 8:19,0.1,3,0.1,4,0.8,16
2016/7/26 8:20,0.1,3,0.1,4,0.6,1
2016/7/26 8:21,0.2,3,0.2,4,0.9,3
2016/7/26 8:22,0.2,3,0.2,4,0.8,3
2016/7/26 8:23,0.2,2,0.3,3,0.5,4
2016/7/26 8:24,0.2,2,0.3,3,0.8,16
2016/7/26 8:25,0.2,2,0.2,3,0.6,7
2016/7/26 8:26,0.2,3,0.2,3,0.6,6
2016/7/26 8:27,0.2,3,0.2,3,0.1,5
2016/7/26 8:28,0.2,3,0.2,3,0,2
2016/7/26 8:29,0.2,2,0.2,3,0,13
2016/7/26 8:30,0.2,2,0.2,3,0.3,3
2016/7/26 8:31,0.2,2,0.2,3,1,3
2016/7/26 8:32,0.2,2,0.2,3,0.6,2
2016/7/26 8:33,0.2,2,0.2,2,0.5,4
2016/7/26 8:34,0.2,3,0.2,2,0.8,16
2016/7/26 8:35,0.2,2,0.2,2,0.8,14
2016/7/26 8:36,0.2,1,0.2,3,0.8,13
2016/7/26 8:37,0.3,16,0.3,16,0.8,12
2016/7/26 8:38,0.3,16,0.3,16,0.8,15
2016/7/26 8:39,0.4,16,0.4,16,0.9,14
2016/7/26 8:40,0.4,16,0.4,16,0.6,14
2016/7/26 8:41,0.4,15,0.4,16,0.5,14
2016/7/26 8:42,0.4,15,0.4,16,0.8,16
2016/7/26 8:43,0.4,14,0.4,16,0.6,16
2016/7/26 8:44,0.4,14,0.4,16,0.5,13
2016/7/26 8:45,0.4,14,0.4,16,0,13
2016/7/26 8:46,0.3,14,0.4,16,0.1,12
2016/7/26 8:47,0.3,14,0.3,16,0.1,12
2016/7/26 8:48,0.2,14,0.3,16,0.1,16
2016/7/26 8:49,0.2,14,0.2,16,0.4,16
2016/7/26 8:50,0.2,14,0.2,16,0.4,14
2016/7/26 8:51,0.1,14,0.1,15,0.4,14
2016/7/26 8:52,0.1,14,0.2,15,0.6,14
2016/7/26 8:53,0.1,13,0.1,14,0.9,14
2016/7/26 8:54,0.2,13,0.2,14,0.9,14
2016/7/26 8:55,0.2,14,0.2,14,0.9,14
2016/7/26 8:56,0.3,14,0.3,14,0.8,15
2016/7/26 8:57,0.4,14,0.4,14,1.1,15
2016/7/26 8:58,0.5,15,0.5,15,1.3,16
2016/7/26 8:59,0.5,15,0.5,15,1,16
2016/7/26 9:00,0.5,15,0.5,15,0.4,16
2016/7/26 9:01,0.5,15,0.5,15,0.4,1
2016/7/26 9:02,0.5,15,0.5,15,0.6,15
2016/7/26 9:03,0.5,15,0.5,15,0.8,15
2016/7/26 9:04,0.5,15,0.5,15,0.8,15
2016/7/26 9:05,0.5,15,0.5,15,0.9,14
2016/7/26 9:06,0.5,15,0.5,15,0.9,15
2016/7/26 9:07,0.4,15,0.5,15,0.1,16
2016/7/26 9:08,0.3,15,0.4,15,0.1,13
2016/7/26 9:09,0.2,14,0.3,15,0.3,13
2016/7/26 9:10,0.2,14,0.2,15,1,13
2016/7/26 9:11,0.3,14,0.3,15,1,13
2016/7/26 9:12,0.4,14,0.4,15,0.9,13
2016/7/26 9:13,0.4,14,0.4,15,0.8,13
2016/7/26 9:14,0.3,13,0.4,15,0.5,14
2016/7/26 9:15,0.3,13,0.3,15,0.5,15
2016/7/26 9:16,0.3,13,0.3,15,0,13
2016/7/26 9:17,0.3,13,0.3,15,0.6,12
2016/7/26 9:18,0.3,13,0.3,14,0.4,12
2016/7/26 9:19,0.3,13,0.3,14,0.3,12
2016/7/26 9:20,0.3,13,0.3,14,0.1,11
2016/7/26 9:21,0.2,12,0.2,14,0,11
2016/7/26 9:22,0.1,12,0.2,14,0,11
2016/7/26 9:23,0.1,12,0.1,14,0,11
2016/7/26 9:24,0,12,0.1,13,0.1,11
2016/7/26 9:25,0,12,0,13,0.1,11
2016/7/26 9:26,0,11,0,13,0,11
2016/7/26 9:27,0,11,0,13,0,11
2016/7/26 9:28,0,11,0,13,0.1,13
2016/7/26 9:29,0,11,0,13,0.5,1
2016/7/26 9:30,0,12,0,13,0.4,1
2016/7/26 9:31,0,12,0,12,0.5,1
2016/7/26 9:32,0,13,0,12,0,1
2016/7/26 9:33,0,13,0,12,0.4,5
2016/7/26 9:34,0.1,15,0.1,14,0.4,5
2016/7/26 9:35,0.1,3,0.1,14,0.5,6
2016/7/26 9:36,0.1,4,0.1,14,0.8,7
2016/7/26 9:37,0.1,4,0.1,14,0.1,7
2016/7/26 9:38,0.1,5,0.1,14,0.1,7
2016/7/26 9:39,0.1,5,0.1,14,0,7
2016/7/26 9:40,0.1,6,0.1,14,0.1,7
2016/7/26 9:41,0.1,6,0.1,14,0,7
2016/7/26 9:42,0.1,7,0.1,14,0,7
2016/7/26 9:43,0.1,7,0.1,14,0,7
2016/7/26 9:44,0.1,7,0.1,15,0,7
2016/7/26 9:45,0,7,0.1,3,0,7
2016/7/26 9:46,0,7,0,4,0.1,7
2016/7/26 9:47,0,7,0,4,0.4,7
2016/7/26 9:48,0,7,0,5,0.4,7
2016/7/26 9:49,0,7,0,6,0.5,7
2016/7/26 9:50,0,7,0,6,0.5,7
2016/7/26 9:51,0.1,7,0.1,6,0.8,6
2016/7/26 9:52,0.2,7,0.2,7,1.1,5
2016/7/26 9:53,0.2,7,0.2,7,0.8,6
2016/7/26 9:54,0.3,7,0.3,7,0.8,5
2016/7/26 9:55,0.3,6,0.3,7,0.6,2
2016/7/26 9:56,0.4,6,0.4,6,1,5
2016/7/26 9:57,0.4,6,0.4,6,1,5
2016/7/26 9:58,0.5,5,0.5,6,1.1,5
2016/7/26 9:59,0.6,5,0.6,5,1.4,5
2016/7/26 10:00,0.6,5,0.6,5,1.1,6
2016/7/26 10:01,0.6,5,0.7,5,0.9,6
2016/7/26 10:02,0.6,5,0.6,5,1.8,4
2016/7/26 10:03,0.7,5,0.7,5,1.8,4
2016/7/26 10:04,0.7,4,0.7,5,1.5,4
2016/7/26 10:05,0.8,4,0.8,4,1,4
2016/7/26 10:06,0.8,4,0.8,4,0.9,3
2016/7/26 10:07,0.7,4,0.8,4,0.9,3
2016/7/26 10:08,0.7,4,0.7,4,0.8,3
2016/7/26 10:09,0.7,4,0.7,4,1,2
2016/7/26 10:10,0.6,4,0.7,4,0.9,4
2016/7/26 10:11,0.7,3,0.7,4,1,3
2016/7/26 10:12,0.6,3,0.7,4,0.6,4
2016/7/26 10:13,0.6,3,0.6,4,1.1,3
2016/7/26 10:14,0.6,3,0.6,4,1,3
2016/7/26 10:15,0.5,3,0.5,4,1.4,2
2016/7/26 10:16,0.6,3,0.6,4,1.5,2
2016/7/26 10:17,0.6,3,0.6,4,1.4,3
2016/7/26 10:18,0.6,2,0.6,4,1.1,2
2016/7/26 10:19,0.6,2,0.6,4,0.8,3
2016/7/26 10:20,0.6,2,0.6,3,1,2
2016/7/26 10:21,0.6,3,0.6,3,0.1,15
2016/7/26 10:22,0.5,2,0.6,3,0.4,1
2016/7/26 10:23,0.5,2,0.5,3,0.5,3
2016/7/26 10:24,0.4,2,0.5,3,0.4,6
2016/7/26 10:25,0.4,3,0.4,3,0.4,6
2016/7/26 10:26,0.3,3,0.4,3,0.1,6
2016/7/26 10:27,0.2,4,0.3,3,0.6,6
2016/7/26 10:28,0.2,5,0.2,2,0.4,6
2016/7/26 10:29,0.2,5,0.2,2,1,6
2016/7/26 10:30,0.2,6,0.2,2,0.8,6
2016/7/26 10:31,0.2,6,0.2,3,0.5,6
2016/7/26 10:32,0.2,6,0.2,2,1,7
2016/7/26 10:33,0.3,6,0.3,2,0.8,6
2016/7/26 10:34,0.2,6,0.3,2,0.1,6
2016/7/26 10:35,0.2,6,0.2,3,0.3,6
2016/7/26 10:36,0.2,6,0.2,3,0.5,6
2016/7/26 10:37,0.3,6,0.3,6,0.8,6
2016/7/26 10:38,0.3,6,0.3,6,0.3,6
2016/7/26 10:39,0.2,6,0.3,6,0.1,6
2016/7/26 10:40,0.2,6,0.2,6,1.3,16
2016/7/26 10:41,0.3,6,0.3,6,1,3
2016/7/26 10:42,0.3,6,0.3,6,1.3,4
2016/7/26 10:43,0.4,5,0.4,5,1.5,4
2016/7/26 10:44,0.5,5,0.5,5,1.6,3
2016/7/26 10:45,0.6,4,0.6,5,1.5,3
2016/7/26 10:46,0.7,4,0.7,4,1.6,3
2016/7/26 10:47,0.7,3,0.7,4,1.4,3
2016/7/26 10:48,0.7,3,0.7,4,0.8,16
2016/7/26 10:49,0.8,3,0.8,3,1,1
2016/7/26 10:50,0.8,3,0.8,3,1.3,2
2016/7/26 10:51,0.8,3,0.8,3,1.6,4
2016/7/26 10:52,0.9,3,0.9,3,1.3,2
2016/7/26 10:53,0.9,2,0.9,3,1.4,2
2016/7/26 10:54,0.8,2,0.9,3,1.5,3
2016/7/26 10:55,0.8,2,0.8,3,1,2
2016/7/26 10:56,0.7,2,0.8,3,1,16
2016/7/26 10:57,0.7,2,0.7,3,1,1
2016/7/26 10:58,0.8,2,0.8,3,1.9,3
2016/7/26 10:59,0.8,3,0.8,3,1,3
2016/7/26 11:00,0.9,3,0.9,3,1.6,3
2016/7/26 11:01,0.9,3,0.9,3,1.5,6
2016/7/26 11:02,0.9,3,0.9,3,1.8,5
2016/7/26 11:03,0.9,3,0.9,2,1.5,4
2016/7/26 11:04,0.9,3,0.9,3,1.6,3
2016/7/26 11:05,1,3,1,3,1.4,3
2016/7/26 11:06,1,3,1,3,1.1,2
2016/7/26 11:07,1,3,1,3,1.4,3
2016/7/26 11:08,1,3,1,3,1.5,3
2016/7/26 11:09,1.1,3,1.1,3,2,3
2016/7/26 11:10,1.1,3,1.1,3,1.5,3
2016/7/26 11:11,1.1,3,1.1,3,1.8,3
2016/7/26 11:12,1.1,3,1.1,3,1.3,4
2016/7/26 11:13,1,3,1.1,3,1.1,2
2016/7/26 11:14,1,3,1,3,1.1,1
2016/7/26 11:15,1,3,1,3,1.4,2
2016/7/26 11:16,1,3,1,3,1.1,2
2016/7/26 11:17,0.9,3,1,3,1.4,2
2016/7/26 11:18,0.9,3,0.9,3,1.8,3
2016/7/26 11:19,0.9,2,0.9,3,1.9,3
2016/7/26 11:20,0.9,2,0.9,3,2,3
2016/7/26 11:21,0.9,2,0.9,3,1.6,3
2016/7/26 11:22,1,2,1,3,2.1,3
2016/7/26 11:23,1,2,1,3,2.1,3
2016/7/26 11:24,1.1,3,1.1,3,2,4
2016/7/26 11:25,1.1,3,1.1,3,2,2
2016/7/26 11:26,1.2,3,1.2,3,1.9,3
2016/7/26 11:27,1.2,3,1.2,3,1,3
2016/7/26 11:28,1.1,3,1.2,3,1.3,1
2016/7/26 11:29,1.1,3,1.1,3,2.5,4
2016/7/26 11:30,1.1,3,1.1,3,2.5,5
2016/7/26 11:31,1.1,3,1.1,3,2.2,4
2016/7/26 11:32,1.1,3,1.2,3,3.3,3
2016/7/26 11:33,1.2,3,1.2,3,3.1,4
2016/7/26 11:34,1.2,3,1.2,3,2.7,4
2016/7/26 11:35,1.3,3,1.3,3,2.4,5
2016/7/26 11:36,1.3,4,1.3,3,2.9,5
2016/7/26 11:37,1.4,4,1.4,4,2.6,5
2016/7/26 11:38,1.6,4,1.6,4,2.6,4